Home > Weather > Bridgetown > Past weeks

Flag for Barbados Weather for the Past 2 Weeks in Bridgetown, Barbados

Now
79 °F

Passing clouds.


Feels Like: 82 °F
Forecast: 78 / 83 °F
Wind: 21 mph from East

Location: Grantley Adams

Current Time: Feb 6, 2016 at 11:59:56 PM

Latest Report: Feb 6, 2016 at 11:00 PM


Visibility: N/A

Pressure: 30.07 "Hg

Humidity: 79%

Dew point: 72 °F

Location of BridgetownLocation

Historic Weather in Bridgetown — Graph

°F

Bridgetown Temperature Yesterday

Maximum temperature yesterday: 82 °F (at 8:00 PM)
Minimum temperature yesterday: 75 °F (at 7:00 PM)
Average temperature yesterday: 78 °F

High & Low Weather Summary for the Past Weeks

 TemperatureHumidityPressure
High86 °F (Jan 25, 12:00 PM)94% (Jan 25, 3:00 AM)30.09 "Hg (Jan 25, 3:00 AM)
Low70 °F (Feb 3, 11:00 PM)55% (Jan 27, 1:00 PM)29.86 "Hg (Feb 3, 4:00 PM)
Average79 °F75%29.99 "Hg
* Reported Jan 22 10:00 PM — Feb 6 10:00 PM, Bridgetown, Weather by CustomWeather, © 2016

Note: Actual official high and low records may vary slightly from our data, if they occured in-between our weather recording intervals... More about our weather records

Advertising

Bridgetown Weather History for the Previous 24 Hours

 ConditionsComfort  
Time TempWeatherWind HumidityBarometerVisibility
10:00 PM
Sat, Feb 6
79 °FPassing clouds.21 mph79%30.07 "HgN/A
9:00 PM79 °FPassing clouds.23 mph79%30.07 "HgN/A
8:00 PM79 °FPassing clouds.21 mph79%30.04 "HgN/A
7:00 PM79 °FPassing clouds.20 mph79%30.04 "HgN/A
6:00 PM81 °FPassing clouds.20 mph79%30.01 "HgN/A
5:00 PM81 °FScattered clouds.24 mph79%30.01 "HgN/A
4:00 PM82 °FScattered clouds.24 mph70%29.98 "HgN/A
3:00 PM84 °FScattered clouds.24 mph70%30.01 "HgN/A
2:00 PM84 °FPassing clouds.25 mph66%30.01 "HgN/A
1:00 PM86 °FPassing clouds.23 mph66%30.04 "Hg5 mi
12:00 PM86 °FPassing clouds.28 mph66%30.07 "Hg5 mi
11:00 AM84 °FPassing clouds.26 mph70%30.07 "Hg6 mi
10:00 AM84 °FPassing clouds.29 mph70%30.09 "Hg6 mi
9:00 AM82 °FPassing clouds.21 mph79%30.07 "Hg6 mi
8:00 AM79 °FScattered clouds.23 mph74%30.07 "HgN/A
7:00 AM79 °FLight rain. Broken clouds.28 mph84%30.04 "Hg6 mi
6:00 AM77 °FScattered showers. Partly cloudy.24 mph83%30.01 "HgN/A
5:00 AM77 °FLight rain. Partly cloudy.26 mph83%29.98 "HgN/A
4:00 AM77 °FSprinkles. Partly cloudy.26 mph83%30.01 "HgN/A
3:00 AM75 °FLight rain. Partly cloudy.30 mph83%30.01 "HgN/A
2:00 AM79 °FPartly cloudy.22 mph79%30.04 "HgN/A
1:00 AM79 °FScattered showers. Partly cloudy.20 mph84%30.07 "HgN/A
12:00 AM79 °FLight rain. Passing clouds.20 mph84%30.07 "HgN/A
11:00 PM
Fri, Feb 5
77 °FLight rain. Passing clouds.15 mph83%30.07 "HgN/A
Weather by CustomWeather, © 2016

See weather overviewHow to use our weather pages